Weather History for Milan, Italy

Change the Weather History Date:

Tuesday, January 28, 2014

  Actual Average Record
Temperature  
Mean Temperature 30 °F -  
Max Temperature 40 °F 47 °F 64 °F (2003)
Min Temperature 21 °F 28 °F 15 °F (1998)
Degree Days  
Heating Degree Days 34    
Moisture  
Dew Point 28 °F    
Average Humidity 93    
Maximum Humidity 100    
Minimum Humidity 73    
Precipitation  
Precipitation 0.00 in 0.10 in - ()
Sea Level Pressure  
Sea Level Pressure 29.55 in    
Wind  
Wind Speed 2 mph ()    
Max Wind Speed 7 mph    
Max Gust Speed -    
Visibility 2.5 miles    
Events Fog    
Averages and records for this station are not official NWS values.
T = Trace of Precipitation, MM = Missing Value Source: Averaged Metar Reports

Daily Weather History Graph

Daily Weather History Graph

Search for Another Location

Airport:

Trip Planner

Search our weather history database for the weather conditions in past years. The results will help you decide how hot, cold, wet, or windy it might be!

Date:

Astronomy

Jan. 28, 2014 Rise Set
Actual Time 7:51 AM CET 5:25 PM CET
Civil Twilight 7:19 AM CET 5:57 PM CET
Nautical Twilight 6:43 AM CET 6:33 PM CET
Astronomical Twilight 6:08 AM CET 7:08 PM CET
Moon 5:19 AM CET (1/28) 2:55 PM CET (1/28)
Length of Visible Light 10h 38m
Length of Day
9h 34m
Waning Crescent, 9% of the Moon is Illuminated
Jan 28
Waning Crescent
Jan 30
New
Feb 6
First Quarter
Feb 15
Full
Feb 22
Last Quarter

Hourly Weather History & Observations

Time (CET) Temp. Windchill Dew Point Humidity Pressure Visibility Wind Dir Wind Speed Gust Speed Precip Events Conditions
12:20 AM 32.0 °F 28.7 °F 30.2 °F 93% 29.53 in 2.5 mi NNE 3.5 mph - N/A   Mostly Cloudy
12:50 AM 30.2 °F - 30.2 °F 100% 29.53 in 2.5 mi Calm Calm - N/A   Scattered Clouds
1:00 AM 29 °F - 28 °F 94% 29.57 in 2 mi NNW 3.5 mph - -   Mist
1:20 AM 28.4 °F 24.6 °F 28.4 °F 100% 29.50 in 2.5 mi North 3.5 mph - N/A   Partly Cloudy
1:50 AM 30.2 °F 26.7 °F 28.4 °F 93% 29.50 in 2.5 mi North 3.5 mph - N/A   Mist
2:20 AM 30.2 °F 26.7 °F 30.2 °F 100% 29.50 in 1.9 mi North 3.5 mph - N/A Fog Patches of Fog
2:50 AM 26.6 °F 22.6 °F 26.6 °F 100% 29.50 in 1.6 mi NNW 3.5 mph - N/A Fog Patches of Fog
3:20 AM 24.8 °F 20.5 °F 24.8 °F 100% 29.50 in 1.6 mi North 3.5 mph - N/A Fog Patches of Fog
3:50 AM 24.8 °F - 24.8 °F 100% 29.50 in 1.6 mi Variable 2.3 mph - N/A Fog Patches of Fog
4:00 AM 23 °F - 22 °F 92% 29.58 in 2 mi North 2.3 mph - -   Mist
4:20 AM 21.2 °F - 19.4 °F 93% 29.50 in 1.6 mi Calm Calm - N/A Fog Patches of Fog
4:50 AM 23.0 °F - 21.2 °F 93% 29.53 in 1.6 mi Variable 2.3 mph - N/A Fog Patches of Fog
5:20 AM 23.0 °F - 21.2 °F 93% 29.53 in 1.6 mi East 2.3 mph - N/A Fog Patches of Fog
5:50 AM 23.0 °F - 23.0 °F 100% 29.53 in 1.6 mi NNW 2.3 mph - N/A Fog Patches of Fog
6:20 AM 21.2 °F 16.4 °F 21.2 °F 100% 29.53 in 1.6 mi NE 3.5 mph - N/A Fog Patches of Fog
6:50 AM 23.0 °F - 21.2 °F 93% 29.53 in 1.9 mi Variable 1.2 mph - N/A Fog Patches of Fog
7:00 AM 22 °F - 22 °F 100% 29.60 in 5 mi NNW 2.3 mph - -   Mist
7:20 AM 23.0 °F 18.4 °F 21.2 °F 93% 29.53 in 5.0 mi North 3.5 mph - N/A   Unknown
7:50 AM 23.0 °F - 21.2 °F 93% 29.53 in 3.1 mi Variable 2.3 mph - N/A Fog Fog
8:20 AM 23.0 °F - 21.2 °F 93% 29.53 in 5.0 mi Variable 2.3 mph - N/A Fog Unknown
8:50 AM 23.0 °F - 21.2 °F 93% 29.56 in 3.1 mi Variable 2.3 mph - N/A Fog Unknown
9:20 AM 28.4 °F - 26.6 °F 93% 29.56 in 0.9 mi Variable 2.3 mph - N/A   Mostly Cloudy
9:50 AM 32.0 °F - 32.0 °F 100% 29.56 in 0.2 mi Variable 2.3 mph - N/A Fog Light Freezing Fog
10:00 AM 32 °F - 32 °F 98% 29.63 in 0 mi East 3.5 mph - - Fog Heavy Fog
10:20 AM 32.0 °F - 32.0 °F 100% 29.59 in 0.1 mi Variable 2.3 mph - N/A Fog Fog
10:50 AM 32.0 °F - 32.0 °F 100% 29.59 in 0.1 mi Variable 2.3 mph - N/A Fog Fog
11:20 AM 33.8 °F - 33.8 °F 100% 29.59 in 0.2 mi Variable 2.3 mph - N/A Fog Fog
11:50 AM 33.8 °F 30.8 °F 33.8 °F 100% 29.59 in 0.9 mi South 3.5 mph - N/A   Mostly Cloudy
12:20 PM 35.6 °F - 33.8 °F 93% 29.59 in 1.1 mi Variable 2.3 mph - N/A   Mostly Cloudy
12:50 PM 35.6 °F 32.8 °F 33.8 °F 93% 29.56 in 1.9 mi SW 3.5 mph - N/A   Mostly Cloudy
1:00 PM 36 °F - 34 °F 90% 29.62 in 2 mi WSW 4.6 mph - -   Mist
1:20 PM 37.4 °F - 35.6 °F 93% 29.56 in 1.9 mi Variable 2.3 mph - N/A   Mostly Cloudy
1:50 PM 37.4 °F 34.9 °F 33.8 °F 87% 29.56 in 2.2 mi South 3.5 mph - N/A   Mostly Cloudy
2:20 PM 39.2 °F 37.0 °F 33.8 °F 81% 29.53 in 2.2 mi South 3.5 mph - N/A   Mostly Cloudy
2:50 PM 41.0 °F 38.0 °F 33.8 °F 76% 29.53 in 2.2 mi SSE 4.6 mph - N/A   Partly Cloudy
3:20 PM 39.2 °F 37.0 °F 33.8 °F 81% 29.53 in 2.2 mi SSE 3.5 mph - N/A   Partly Cloudy
3:50 PM 39.2 °F - 33.8 °F 81% 29.53 in 2.2 mi Variable 2.3 mph - N/A   Partly Cloudy
4:00 PM 39 °F - 33 °F 73% 29.57 in 2 mi SSE 1.2 mph - -   Mist
4:20 PM 39.2 °F - 33.8 °F 81% 29.53 in 2.2 mi Variable 2.3 mph - N/A   Partly Cloudy
4:50 PM 39.2 °F 37.0 °F 33.8 °F 81% 29.53 in 3.1 mi SE 3.5 mph - N/A   Partly Cloudy
5:20 PM 35.6 °F 32.8 °F 30.2 °F 81% 29.53 in 4.3 mi WSW 3.5 mph - N/A   Partly Cloudy
5:50 PM 37.4 °F - 32.0 °F 81% 29.50 in 3.7 mi Variable 2.3 mph - N/A   Partly Cloudy
6:20 PM 33.8 °F - 30.2 °F 87% 29.50 in 4.3 mi Variable 2.3 mph - N/A   Partly Cloudy
6:50 PM 30.2 °F 26.7 °F 28.4 °F 93% 29.53 in 4.3 mi North 3.5 mph - N/A   Partly Cloudy
7:00 PM 30 °F - 28 °F 91% 29.58 in 2 mi North 2.3 mph - -   Mist
7:20 PM 30.2 °F 26.7 °F 28.4 °F 93% 29.53 in 4.3 mi NNE 3.5 mph - N/A   Partly Cloudy
7:50 PM 28.4 °F 24.6 °F 26.6 °F 93% 29.53 in 4.3 mi North 3.5 mph - N/A   Partly Cloudy
8:20 PM 24.8 °F - 24.8 °F 100% 29.53 in 4.3 mi Variable 2.3 mph - N/A   Partly Cloudy
8:50 PM 26.6 °F - 24.8 °F 93% 29.53 in 3.1 mi Variable 1.2 mph - N/A   Partly Cloudy
9:20 PM 26.6 °F - 24.8 °F 93% 29.53 in 3.1 mi Variable 2.3 mph - N/A   Partly Cloudy
9:50 PM 24.8 °F 20.5 °F 23.0 °F 93% 29.53 in 3.7 mi North 3.5 mph - N/A Fog Shallow Fog
10:00 PM 25 °F - 24 °F 97% 29.61 in 3 mi NNE 2.3 mph - - Fog Patches of Fog
10:20 PM 23.0 °F - 23.0 °F 100% 29.56 in 3.7 mi Calm Calm - N/A   Unknown
10:50 PM 26.6 °F - 26.6 °F 100% 29.56 in 3.7 mi Variable 1.2 mph - N/A   Unknown
11:20 PM 26.6 °F 19.1 °F 24.8 °F 93% 29.56 in 3.7 mi North 6.9 mph - N/A   Unknown
11:50 PM 23.0 °F - 21.2 °F 93% 29.56 in 3.7 mi Variable 2.3 mph - N/A   Unknown